KC2TER Weather Reports


time (UTC)temp
F
wind
direction
speed
knots
gust
knots
rain 1hr
in
rain 24hr
in
rain mn
in
humidity
%
barometer
mb
20260505102045 60 122 0.9 4.3 0.00 0.00 0.00 81 1010.9
20260505101543 60 115 0.9 5.2 0.00 0.00 0.00 81 1010.9
20260505101039 60 115 2.6 5.2 0.00 0.00 0.00 82 1010.9
20260505100536 59 142 1.7 2.6 0.00 0.00 0.00 82 1010.7
20260505100033 59 104 0.0 4.3 0.00 0.00 0.00 82 1010.8
20260505095529 59 101 2.6 5.2 0.00 0.00 0.00 82 1010.6
20260505095025 59 105 4.3 6.1 0.00 0.00 0.00 83 1010.7
20260505094522 59 131 3.5 5.2 0.00 0.00 0.00 82 1010.4
20260505094018 59 87 2.6 7.0 0.00 0.00 0.00 82 1010.7
20260505093515 59 113 2.6 4.3 0.00 0.00 0.00 83 1010.7
20260505093012 59 86 1.7 6.1 0.00 0.00 0.00 82 1010.7
20260505092510 59 129 2.6 2.6 0.00 0.00 0.00 83 1010.6
20260505092008 59 132 2.6 6.1 0.00 0.00 0.00 83 1010.8
20260505091504 59 119 3.5 5.2 0.00 0.00 0.00 83 1010.8
20260505091003 59 143 3.5 5.2 0.00 0.00 0.00 83 1010.8
20260505090500 59 119 0.9 1.7 0.00 0.00 0.00 83 1010.8
20260505085957 59 108 2.6 5.2 0.00 0.00 0.00 83 1010.6
20260505085455 58 133 3.5 5.2 0.00 0.00 0.00 83 1010.6
20260505084954 58 108 0.0 4.3 0.00 0.00 0.00 83 1010.8
20260505084452 58 121 2.6 4.3 0.00 0.00 0.00 83 1010.7
20260505083949 58 145 2.6 4.3 0.00 0.00 0.00 83 1010.5
20260505083446 58 107 0.9 4.3 0.00 0.00 0.00 83 1010.8
20260505082942 58 113 1.7 4.3 0.00 0.00 0.00 83 1010.7
20260505082438 58 104 0.0 5.2 0.00 0.00 0.00 83 1010.5
20260505081936 58 119 2.6 4.3 0.00 0.00 0.00 83 1010.6
20260505081432 58 99 1.7 5.2 0.00 0.00 0.00 84 1010.7
20260505080929 58 106 1.7 2.6 0.00 0.00 0.00 84 1010.5
20260505080425 58 121 2.6 2.6 0.00 0.00 0.00 84 1010.6
20260505075920 58 111 0.9 2.6 0.00 0.00 0.00 84 1010.7
20260505075417 57 100 0.0 1.7 0.00 0.00 0.00 84 1010.7
20260505074915 57 122 0.0 1.7 0.00 0.00 0.00 85 1010.6
20260505074412 57 110 0.9 0.9 0.00 0.00 0.00 85 1010.7
20260505073909 57 108 0.0 1.7 0.00 0.00 0.00 84 1010.6
20260505073407 57 118 0.9 1.7 0.00 0.00 0.00 84 1010.5
20260505072904 57 94 1.7 2.6 0.00 0.00 0.00 85 1010.3
20260505072400 57 109 0.9 1.7 0.00 0.00 0.00 85 1010.3
20260505071856 57 107 0.9 4.3 0.00 0.00 0.00 85 1010.5
20260505071352 56 107 0.0 2.6 0.00 0.00 0.00 86 1010.6
20260505070851 56 109 0.0 0.0 0.00 0.00 0.00 87 1010.3
20260505070347 56 104 0.0 5.2 0.00 0.00 0.00 87 1010.6
20260505065842 56 108 0.0 1.7 0.00 0.00 0.00 88 1010.5
20260505065339 55 108 0.0 0.0 0.00 0.00 0.00 89 1010.5
20260505064836 55 117 0.9 0.9 0.00 0.00 0.00 90 1010.6
20260505064333 55 110 0.0 0.9 0.00 0.00 0.00 91 1010.6
20260505063831 55 114 0.0 0.0 0.00 0.00 0.00 92 1010.5
20260505063327 55 107 0.0 0.9 0.00 0.00 0.00 92 1010.6
20260505062824 55 111 0.0 0.0 0.00 0.00 0.00 92 1010.7
20260505062321 55 105 0.0 0.0 0.00 0.00 0.00 92 1010.5
20260505061818 55 106 0.0 0.0 0.00 0.00 0.00 92 1010.6
20260505061316 55 109 0.0 0.0 0.00 0.00 0.00 92 1010.8
20260505060813 55 104 0.0 0.0 0.00 0.00 0.00 91 1010.8
20260505060310 55 103 0.0 0.9 0.00 0.00 0.00 91 1010.7
20260505055806 55 95 0.9 0.9 0.00 0.00 0.00 91 1010.7
20260505055303 56 106 0.0 0.0 0.00 0.00 0.00 90 1010.7
20260505054800 56 103 0.0 0.0 0.00 0.00 0.00 90 1010.8
20260505054257 56 107 0.0 0.0 0.00 0.00 0.00 89 1010.9
20260505053755 56 107 0.0 0.0 0.00 0.00 0.00 89 1010.8
20260505053252 56 98 0.0 0.9 0.00 0.00 0.00 89 1010.8
20260505052749 56 107 0.0 0.0 0.00 0.00 0.00 88 1010.7
20260505052246 56 104 0.0 0.0 0.00 0.00 0.00 87 1010.9
20260505051742 57 111 0.0 0.0 0.00 0.00 0.00 85 1011.0
20260505051240 57 107 0.0 0.0 0.00 0.00 0.00 83 1010.8
20260505050738 57 107 0.0 0.0 0.00 0.00 0.00 82 1011.0
20260505050237 57 108 0.0 0.9 0.00 0.00 0.00 81 1011.2
20260505041706 59 105 0.0 0.0 0.00 0.00 0.00 75 1010.9
20260505041203 59 99 0.0 0.9 0.00 0.00 0.00 74 1011.3
20260505040700 59 100 0.0 1.7 0.00 0.00 0.00 73 1011.0
20260505040157 59 101 0.0 1.7 0.00 0.00 0.00 73 1011.1
20260505035654 59 108 0.0 2.6 0.00 0.00 0.00 73 1011.2
20260505035150 59 112 0.9 1.7 0.00 0.00 0.00 73 1011.1
20260505034647 59 103 0.0 0.9 0.00 0.00 0.00 72 1011.0
20260505034144 59 97 0.0 0.9 0.00 0.00 0.00 72 1011.0
20260505033640 59 103 0.0 0.9 0.00 0.00 0.00 72 1011.2
20260505033139 59 107 0.0 0.9 0.00 0.00 0.00 71 1011.2
20260505032637 59 105 0.0 0.0 0.00 0.00 0.00 71 1011.2
20260505032132 60 104 0.0 4.3 0.00 0.00 0.00 71 1011.3
20260505031630 59 99 0.9 1.7 0.00 0.00 0.00 71 1011.5
20260505031126 59 112 0.9 2.6 0.00 0.00 0.00 71 1011.4
20260505030623 59 107 0.0 0.0 0.00 0.00 0.00 72 1011.4
20260505030119 59 107 0.0 0.9 0.00 0.00 0.00 72 1011.5
20260505025615 59 107 0.0 0.0 0.00 0.00 0.00 72 1011.4
20260505025114 59 109 0.0 2.6 0.00 0.00 0.00 71 1011.5
20260505024611 59 106 0.0 0.0 0.00 0.00 0.00 72 1011.5
20260505024108 59 107 0.0 0.9 0.00 0.00 0.00 72 1011.5
20260505023605 59 99 0.0 0.9 0.00 0.00 0.00 72 1011.6
20260505023103 59 109 0.0 1.7 0.00 0.00 0.00 72 1011.5
20260505022600 59 107 0.0 0.9 0.00 0.00 0.00 72 1011.8
20260505022057 59 102 0.0 0.0 0.00 0.00 0.00 72 1011.7
20260505021553 59 105 0.0 0.0 0.00 0.00 0.00 73 1011.8
20260505021050 59 108 0.9 4.3 0.00 0.00 0.00 73 1011.8
20260505020550 59 102 0.0 0.0 0.00 0.00 0.00 73 1011.5
20260505020047 59 104 0.9 1.7 0.00 0.00 0.00 72 1011.7
20260505015544 59 107 0.0 2.6 0.00 0.00 0.00 72 1011.7
20260505015041 59 81 0.9 1.7 0.00 0.00 0.00 72 1011.6
20260505014538 60 102 0.9 1.7 0.00 0.00 0.00 72 1011.5
20260505014035 59 101 0.0 1.7 0.00 0.00 0.00 73 1011.4
20260505013532 59 106 0.0 0.9 0.00 0.00 0.00 73 1011.5
20260505013030 59 107 0.9 0.9 0.00 0.00 0.00 72 1011.6
20260505012527 60 96 0.9 1.7 0.00 0.00 0.00 72 1011.4
20260505012024 60 106 0.9 1.7 0.00 0.00 0.00 72 1011.3
20260505011520 60 102 0.9 1.7 0.00 0.00 0.00 72 1011.2
20260505011017 60 104 0.0 5.2 0.00 0.00 0.00 72 1011.3
20260505010512 60 113 0.9 2.6 0.00 0.00 0.00 73 1011.2
20260505010009 60 105 0.0 1.7 0.00 0.00 0.00 72 1011.2
20260505005506 60 102 0.0 5.2 0.00 0.00 0.00 72 1011.1
20260505005004 60 100 0.9 2.6 0.00 0.00 0.00 74 1011.2
20260505004500 60 115 0.9 1.7 0.00 0.00 0.00 75 1011.0
20260505003956 60 36 2.6 4.3 0.00 0.00 0.00 75 1011.0
20260505003454 60 111 0.0 0.9 0.00 0.00 0.00 75 1011.0
20260505002950 60 112 1.7 1.7 0.00 0.00 0.00 74 1011.1
20260505002446 60 109 0.0 4.3 0.00 0.00 0.00 74 1010.9
20260505001945 60 99 3.5 6.1 0.00 0.00 0.00 73 1010.6
20260505001442 61 109 2.6 2.6 0.00 0.00 0.00 73 1010.7
20260505000939 61 106 0.9 2.6 0.00 0.00 0.00 70 1010.4
20260505000437 62 98 0.0 2.6 0.00 0.00 0.00 67 1010.4
20260504235934 62 98 1.7 2.6 0.00 0.00 0.00 66 1010.3
20260504235431 62 51 0.0 1.7 0.00 0.00 0.00 66 1010.5
20260504234927 62 101 4.3 5.2 0.00 0.00 0.00 66 1010.3
20260504234425 63 103 0.9 5.2 0.00 0.00 0.00 66 1010.3
20260504233921 63 105 0.9 1.7 0.00 0.00 0.00 66 1010.3
20260504233417 63 97 2.6 2.6 0.00 0.00 0.00 66 1010.3
20260504232914 64 104 1.7 2.6 0.00 0.00 0.00 64 1010.2
20260504232411 64 99 0.0 1.7 0.00 0.00 0.00 63 1010.1
20260504231908 65 106 0.9 1.7 0.00 0.00 0.00 61 1010.1
20260504231404 65 99 0.9 5.2 0.00 0.00 0.00 61 1009.9
20260504230900 64 105 2.6 5.2 0.00 0.00 0.00 61 1009.9
20260504230358 65 86 1.7 2.6 0.00 0.00 0.00 63 1010.0
20260504225856 65 90 0.9 1.7 0.00 0.00 0.00 62 1010.2
20260504225352 65 84 2.6 2.6 0.00 0.00 0.00 63 1010.2
20260504224850 65 107 0.9 1.7 0.00 0.00 0.00 63 1009.8
20260504224347 66 101 0.9 2.6 0.00 0.00 0.00 63 1010.0
20260504223843 66 97 0.9 1.7 0.00 0.00 0.00 61 1009.8
20260504223339 66 99 0.0 1.7 0.00 0.00 0.00 61 1009.7
20260504222836 66 106 2.6 4.3 0.00 0.00 0.00 60 1009.8
20260504222333 66 75 4.3 5.2 0.00 0.00 0.00 59 1010.0
20260504221831 67 62 2.6 4.3 0.00 0.00 0.00 59 1009.6
20260504221327 66 96 0.9 5.2 0.00 0.00 0.00 58 1009.8
20260504220825 67 103 0.0 4.3 0.00 0.00 0.00 58 1009.9
20260504220321 67 64 1.7 4.3 0.00 0.00 0.00 58 1009.8
20260504215819 66 98 0.9 1.7 0.00 0.00 0.00 60 1009.9
20260504215315 67 76 0.9 5.2 0.00 0.00 0.00 59 1010.1
20260504214811 68 93 1.7 1.7 0.00 0.00 0.00 58 1010.2
20260504214308 67 102 0.9 1.7 0.00 0.00 0.00 58 1010.0
20260504213804 67 58 1.7 6.1 0.00 0.00 0.00 58 1010.2
20260504213300 68 338 4.3 6.1 0.00 0.00 0.00 56 1010.3
20260504212758 68 103 1.7 2.6 0.00 0.00 0.00 56 1010.1
20260504212254 68 82 2.6 4.3 0.00 0.00 0.00 57 1010.1
20260504211752 68 109 1.7 5.2 0.00 0.00 0.00 56 1009.9
20260504211247 68 31 1.7 5.2 0.00 0.00 0.00 54 1009.9
20260504210745 68 103 0.0 2.6 0.00 0.00 0.00 55 1010.1
20260504210242 69 95 2.6 7.8 0.00 0.00 0.00 52 1010.0
20260504205739 68 103 0.9 5.2 0.00 0.00 0.00 53 1010.0
20260504205237 69 20 3.5 6.1 0.00 0.00 0.00 52 1009.8
20260504204735 69 98 3.5 7.8 0.00 0.00 0.00 51 1009.8
20260504204233 69 142 4.3 7.0 0.00 0.00 0.00 52 1009.9
20260504203732 69 97 1.7 8.7 0.00 0.00 0.00 52 1009.9
20260504203229 69 114 3.5 7.0 0.00 0.00 0.00 55 1009.7
20260504202729 70 105 0.9 6.1 0.00 0.00 0.00 52 1009.8
20260504202227 70 121 0.9 4.3 0.00 0.00 0.00 53 1010.0
20260504201724 70 72 0.9 7.8 0.00 0.00 0.00 53 1009.9
20260504201221 71 97 0.9 2.6 0.00 0.00 0.00 52 1009.7
20260504200718 71 113 1.7 1.7 0.00 0.00 0.00 53 1010.1
20260504200214 70 115 0.9 4.3 0.00 0.00 0.00 53 1010.2
20260504195711 70 104 1.7 4.3 0.00 0.00 0.00 54 1010.1
20260504195207 71 66 1.7 5.2 0.00 0.00 0.00 54 1010.3
20260504194704 71 94 0.9 2.6 0.00 0.00 0.00 53 1010.2
20260504194200 72 100 0.0 2.6 0.00 0.00 0.00 53 1010.1
20260504193656 72 108 2.6 4.3 0.00 0.00 0.00 53 1010.2
20260504193154 72 48 0.9 5.2 0.00 0.00 0.00 52 1010.1
20260504192652 73 111 0.0 0.9 0.00 0.00 0.00 51 1010.2
20260504192150 72 103 0.9 5.2 0.00 0.00 0.00 51 1010.5
20260504191648 72 120 2.6 8.7 0.00 0.00 0.00 49 1010.4
20260504191144 74 114 0.9 5.2 0.00 0.00 0.00 44 1010.5
20260504190640 73 123 0.9 6.1 0.00 0.00 0.00 35 1010.5
20260504190137 73 124 2.6 8.7 0.00 0.00 0.00 36 1010.8
20260504185633 73 110 2.6 5.2 0.00 0.00 0.00 34 1010.8
20260504185130 74 99 2.6 5.2 0.00 0.00 0.00 34 1010.8
20260504184626 72 104 5.2 7.8 0.00 0.00 0.00 35 1010.8
20260504184121 72 117 5.2 7.8 0.00 0.00 0.00 36 1011.0
20260504183619 71 109 4.3 7.0 0.00 0.00 0.00 36 1010.9
20260504183116 72 127 8.7 13.0 0.00 0.00 0.00 35 1011.1
20260504182614 73 66 3.5 5.2 0.00 0.00 0.00 35 1011.0
20260504182111 72 118 2.6 7.8 0.00 0.00 0.00 36 1011.3
20260504181608 71 161 5.2 7.0 0.00 0.00 0.00 36 1011.1
20260504181106 71 114 6.1 7.8 0.00 0.00 0.00 37 1011.4
20260504180604 71 134 8.7 8.7 0.00 0.00 0.00 36 1011.4
20260504180103 71 121 3.5 11.3 0.00 0.00 0.00 36 1011.5
20260504175600 72 80 0.9 7.8 0.00 0.00 0.00 37 1011.6
20260504175056 72 104 1.7 5.2 0.00 0.00 0.00 37 1011.4
20260504174555 71 120 3.5 7.0 0.00 0.00 0.00 36 1011.6
20260504174051 71 128 4.3 7.8 0.00 0.00 0.00 37 1011.6
20260504173548 71 90 4.3 7.8 0.00 0.00 0.00 36 1011.7
20260504173046 70 141 6.1 7.8 0.00 0.00 0.00 36 1011.9
20260504172541 71 49 6.1 11.3 0.00 0.00 0.00 36 1011.9
20260504172038 71 109 0.9 7.8 0.00 0.00 0.00 38 1011.9
20260504171535 70 108 4.3 8.7 0.00 0.00 0.00 39 1011.9
20260504171032 70 94 1.7 7.0 0.00 0.00 0.00 37 1012.2
20260504170528 70 79 2.6 7.0 0.00 0.00 0.00 36 1012.0
20260504150912 66 115 2.6 5.2 0.00 0.00 0.00 43 1013.4
20260504150409 66 120 2.6 12.2 0.00 0.00 0.00 43 1013.3
20260504140835 63 110 1.7 5.2 0.00 0.00 0.00 45 1013.8
20260504140331 63 102 0.9 7.8 0.00 0.00 0.00 45 1013.8
20260504130800 59 116 1.7 4.3 0.00 0.00 0.00 56 1014.3
20260504130256 59 112 4.3 5.2 0.00 0.00 0.00 57 1014.4
20260504120219 54 139 4.3 9.6 0.00 0.00 0.00 68 1014.8
20260504110647 51 110 4.3 7.8 0.00 0.00 0.00 72 1015.0
20260504110143 51 148 6.1 7.8 0.00 0.00 0.00 72 1015.2